Time,TemperatureF,DewpointF,PressureIn,WindDirection,WindDirectionDegrees,WindSpeedMPH,WindSpeedGustMPH,Humidity,HourlyPrecipIn,Conditions,Clouds,dailyrainin,SolarRadiationWatts/m^2,SoftwareType,DateUTC
2013-04-15 00:01:00,41.0,26.0,-100.00,East,89,0.0,10.0,54,0.00,,,0.00,0.000000,,2013-04-15 04:01:00,
2013-04-15 00:23:00,41.0,26.0,-100.00,East,89,0.0,10.0,54,0.00,,,0.00,0.000000,,2013-04-15 04:23:00,
2013-04-15 00:33:00,41.0,26.0,-100.00,East,89,0.0,10.0,54,0.00,,,0.00,0.000000,,2013-04-15 04:33:00,
2013-04-15 00:43:00,41.0,26.0,-100.00,East,89,0.0,10.0,54,0.00,,,0.00,0.000000,,2013-04-15 04:43:00,
2013-04-15 00:53:00,41.0,26.0,-100.00,East,89,0.0,10.0,54,0.00,,,0.00,0.000000,,2013-04-15 04:53:00,
2013-04-15 01:01:00,38.0,26.0,-100.00,East,99,1.0,4.0,62,0.00,,,0.00,0.000000,,2013-04-15 05:01:00,
2013-04-15 01:33:00,38.0,26.0,-100.00,East,99,1.0,4.0,62,0.00,,,0.00,0.000000,,2013-04-15 05:33:00,
2013-04-15 01:43:00,38.0,26.0,-100.00,East,99,1.0,4.0,62,0.00,,,0.00,0.000000,,2013-04-15 05:43:00,
2013-04-15 01:53:00,38.0,26.0,-100.00,East,99,1.0,4.0,62,0.00,,,0.00,0.000000,,2013-04-15 05:53:00,
2013-04-15 02:01:00,39.0,25.0,-100.00,NE,48,0.0,6.0,58,0.00,,,0.00,0.000000,,2013-04-15 06:01:00,
2013-04-15 02:23:00,39.0,25.0,-100.00,NE,48,0.0,6.0,58,0.00,,,0.00,0.000000,,2013-04-15 06:23:00,
2013-04-15 02:34:00,39.0,25.0,-100.00,NE,48,0.0,6.0,58,0.00,,,0.00,0.000000,,2013-04-15 06:34:00,
2013-04-15 02:43:00,39.0,25.0,-100.00,NE,48,0.0,6.0,58,0.00,,,0.00,0.000000,,2013-04-15 06:43:00,
2013-04-15 02:53:00,39.0,25.0,-100.00,NE,48,0.0,6.0,58,0.00,,,0.00,0.000000,,2013-04-15 06:53:00,
2013-04-15 03:01:00,35.0,25.0,-100.00,ENE,76,0.0,0.0,67,0.00,,,0.00,0.000000,,2013-04-15 07:01:00,
2013-04-15 03:42:00,35.0,25.0,-100.00,ENE,76,0.0,0.0,67,0.00,,,0.00,0.000000,,2013-04-15 07:42:00,
2013-04-15 03:54:00,35.0,25.0,-100.00,ENE,76,0.0,0.0,67,0.00,,,0.00,0.000000,,2013-04-15 07:54:00,
2013-04-15 04:01:00,34.0,26.0,-100.00,East,84,0.0,2.0,72,0.00,,,0.00,0.000000,,2013-04-15 08:01:00,
2013-04-15 04:34:00,34.0,26.0,-100.00,East,84,0.0,2.0,72,0.00,,,0.00,0.000000,,2013-04-15 08:34:00,
2013-04-15 04:43:00,34.0,26.0,-100.00,East,84,0.0,2.0,72,0.00,,,0.00,0.000000,,2013-04-15 08:43:00,
2013-04-15 04:52:00,34.0,26.0,-100.00,East,84,0.0,2.0,72,0.00,,,0.00,0.000000,,2013-04-15 08:52:00,
2013-04-15 05:01:00,36.0,28.0,-100.00,ENE,65,0.0,3.0,72,0.00,,,0.00,0.000000,,2013-04-15 09:01:00,
2013-04-15 05:23:00,36.0,28.0,-100.00,ENE,65,0.0,3.0,72,0.00,,,0.00,0.000000,,2013-04-15 09:23:00,
2013-04-15 05:33:00,36.0,28.0,-100.00,ENE,65,0.0,3.0,72,0.00,,,0.00,0.000000,,2013-04-15 09:33:00,
2013-04-15 05:43:00,36.0,28.0,-100.00,ENE,65,0.0,3.0,72,0.00,,,0.00,0.000000,,2013-04-15 09:43:00,
2013-04-15 05:53:00,36.0,28.0,-100.00,ENE,65,0.0,3.0,72,0.00,,,0.00,0.000000,,2013-04-15 09:53:00,
2013-04-15 06:01:00,36.0,28.0,-100.00,NE,56,0.0,2.0,73,0.00,,,0.00,0.000000,,2013-04-15 10:01:00,
2013-04-15 06:33:00,36.0,28.0,-100.00,NE,56,0.0,2.0,73,0.00,,,0.00,0.000000,,2013-04-15 10:33:00,
2013-04-15 06:42:00,36.0,28.0,-100.00,NE,56,0.0,2.0,73,0.00,,,0.00,0.000000,,2013-04-15 10:42:00,
2013-04-15 06:53:00,36.0,28.0,-100.00,NE,56,0.0,2.0,73,0.00,,,0.00,0.000000,,2013-04-15 10:53:00,
2013-04-15 07:01:00,37.0,29.0,-100.00,ENE,78,0.0,1.0,72,0.00,,,0.00,19.000000,,2013-04-15 11:01:00,
2013-04-15 07:23:00,37.0,29.0,-100.00,ENE,78,0.0,1.0,72,0.00,,,0.00,19.000000,,2013-04-15 11:23:00,
2013-04-15 07:33:00,37.0,29.0,-100.00,ENE,78,0.0,1.0,72,0.00,,,0.00,19.000000,,2013-04-15 11:33:00,
2013-04-15 07:44:00,37.0,29.0,-100.00,ENE,78,0.0,1.0,72,0.00,,,0.00,19.000000,,2013-04-15 11:44:00,
2013-04-15 07:54:00,37.0,29.0,-100.00,ENE,78,0.0,1.0,72,0.00,,,0.00,19.000000,,2013-04-15 11:54:00,
2013-04-15 08:01:00,44.0,30.0,-100.00,East,99,1.0,4.0,57,0.00,,,0.00,92.000000,,2013-04-15 12:01:00,
2013-04-15 08:34:00,44.0,30.0,-100.00,East,99,1.0,4.0,57,0.00,,,0.00,92.000000,,2013-04-15 12:34:00,
2013-04-15 08:43:00,44.0,30.0,-100.00,East,99,1.0,4.0,57,0.00,,,0.00,92.000000,,2013-04-15 12:43:00,
2013-04-15 08:53:00,44.0,30.0,-100.00,East,99,1.0,4.0,57,0.00,,,0.00,92.000000,,2013-04-15 12:53:00,
2013-04-15 09:01:00,46.0,30.0,-100.00,SSE,168,1.0,6.0,53,0.00,,,0.00,165.000000,,2013-04-15 13:01:00,
2013-04-15 09:34:00,46.0,30.0,-100.00,SSE,168,1.0,6.0,53,0.00,,,0.00,165.000000,,2013-04-15 13:34:00,
2013-04-15 09:43:00,46.0,30.0,-100.00,SSE,168,1.0,6.0,53,0.00,,,0.00,165.000000,,2013-04-15 13:43:00,
2013-04-15 09:54:00,46.0,30.0,-100.00,SSE,168,1.0,6.0,53,0.00,,,0.00,165.000000,,2013-04-15 13:54:00,
2013-04-15 10:01:00,49.0,32.0,-100.00,SE,129,1.0,6.0,52,0.00,,,0.00,236.000000,,2013-04-15 14:01:00,
2013-04-15 10:23:00,49.0,32.0,-100.00,SE,129,1.0,6.0,52,0.00,,,0.00,236.000000,,2013-04-15 14:23:00,
2013-04-15 10:34:00,49.0,32.0,-100.00,SE,129,1.0,6.0,52,0.00,,,0.00,236.000000,,2013-04-15 14:34:00,
2013-04-15 10:44:00,49.0,32.0,-100.00,SE,129,1.0,6.0,52,0.00,,,0.00,236.000000,,2013-04-15 14:44:00,
2013-04-15 10:55:00,49.0,32.0,-100.00,SE,129,1.0,6.0,52,0.00,,,0.00,236.000000,,2013-04-15 14:55:00,
2013-04-15 11:01:00,52.0,30.0,-100.00,SSW,207,3.0,9.0,42,0.00,,,0.00,395.000000,,2013-04-15 15:01:00,
2013-04-15 11:37:00,52.0,30.0,-100.00,SSW,207,3.0,9.0,42,0.00,,,0.00,395.000000,,2013-04-15 15:37:00,
2013-04-15 11:45:00,52.0,30.0,-100.00,SSW,207,3.0,9.0,42,0.00,,,0.00,395.000000,,2013-04-15 15:45:00,
2013-04-15 11:55:00,52.0,30.0,-100.00,SSW,207,3.0,9.0,42,0.00,,,0.00,395.000000,,2013-04-15 15:55:00,
2013-04-15 12:01:00,52.0,30.0,-100.00,WSW,244,3.0,9.0,42,0.00,,,0.00,484.000000,,2013-04-15 16:01:00,
2013-04-15 12:25:00,52.0,30.0,-100.00,WSW,244,3.0,9.0,42,0.00,,,0.00,484.000000,,2013-04-15 16:25:00,
2013-04-15 12:34:00,52.0,30.0,-100.00,WSW,244,3.0,9.0,42,0.00,,,0.00,484.000000,,2013-04-15 16:34:00,
2013-04-15 12:44:00,52.0,30.0,-100.00,WSW,244,3.0,9.0,42,0.00,,,0.00,484.000000,,2013-04-15 16:44:00,
2013-04-15 12:54:00,52.0,30.0,-100.00,WSW,244,3.0,9.0,42,0.00,,,0.00,484.000000,,2013-04-15 16:54:00,
2013-04-15 13:01:00,54.0,31.0,-100.00,SW,215,5.0,11.0,41,0.00,,,0.00,671.000000,,2013-04-15 17:01:00,
2013-04-15 13:33:00,54.0,31.0,-100.00,SW,215,5.0,11.0,41,0.00,,,0.00,671.000000,,2013-04-15 17:33:00,
2013-04-15 13:43:00,54.0,31.0,-100.00,SW,215,5.0,11.0,41,0.00,,,0.00,671.000000,,2013-04-15 17:43:00,
2013-04-15 13:53:00,54.0,31.0,-100.00,SW,215,5.0,11.0,41,0.00,,,0.00,671.000000,,2013-04-15 17:53:00,
2013-04-15 14:01:00,54.0,31.0,-100.00,SW,222,5.0,11.0,42,0.00,,,0.00,775.000000,,2013-04-15 18:01:00,
2013-04-15 14:24:00,54.0,31.0,-100.00,SW,222,5.0,11.0,42,0.00,,,0.00,775.000000,,2013-04-15 18:24:00,
2013-04-15 14:33:00,54.0,31.0,-100.00,SW,222,5.0,11.0,42,0.00,,,0.00,775.000000,,2013-04-15 18:33:00,
2013-04-15 14:42:00,54.0,31.0,-100.00,SW,222,5.0,11.0,42,0.00,,,0.00,775.000000,,2013-04-15 18:42:00,
2013-04-15 14:52:00,54.0,31.0,-100.00,SW,222,5.0,11.0,42,0.00,,,0.00,775.000000,,2013-04-15 18:52:00,
2013-04-15 15:01:00,55.0,32.0,-100.00,SW,215,5.0,12.0,42,0.00,,,0.00,783.000000,,2013-04-15 19:01:00,
2013-04-15 15:22:00,55.0,32.0,-100.00,SW,215,5.0,12.0,42,0.00,,,0.00,783.000000,,2013-04-15 19:22:00,
2013-04-15 15:39:00,55.0,32.0,-100.00,SW,215,5.0,12.0,42,0.00,,,0.00,783.000000,,2013-04-15 19:39:00,
2013-04-15 15:59:00,55.0,32.0,-100.00,SW,215,5.0,12.0,42,0.00,,,0.00,783.000000,,2013-04-15 19:59:00,
2013-04-15 16:01:00,53.0,31.0,-100.00,SW,235,5.0,13.0,43,0.00,,,0.00,547.000000,,2013-04-15 20:01:00,
2013-04-15 16:32:00,53.0,31.0,-100.00,SW,235,5.0,13.0,43,0.00,,,0.00,547.000000,,2013-04-15 20:32:00,
2013-04-15 16:42:00,53.0,31.0,-100.00,SW,235,5.0,13.0,43,0.00,,,0.00,547.000000,,2013-04-15 20:42:00,
2013-04-15 16:52:00,53.0,31.0,-100.00,SW,235,5.0,13.0,43,0.00,,,0.00,547.000000,,2013-04-15 20:52:00,
2013-04-15 17:01:00,52.0,31.0,-100.00,WSW,239,4.0,12.0,44,0.00,,,0.00,514.000000,,2013-04-15 21:01:00,
2013-04-15 17:33:00,52.0,31.0,-100.00,WSW,239,4.0,12.0,44,0.00,,,0.00,514.000000,,2013-04-15 21:33:00,
2013-04-15 17:43:00,52.0,31.0,-100.00,WSW,239,4.0,12.0,44,0.00,,,0.00,514.000000,,2013-04-15 21:43:00,
2013-04-15 17:53:00,52.0,31.0,-100.00,WSW,239,4.0,12.0,44,0.00,,,0.00,514.000000,,2013-04-15 21:53:00,
2013-04-15 18:01:00,50.0,31.0,-100.00,SW,225,4.0,10.0,48,0.00,,,0.00,289.000000,,2013-04-15 22:01:00,
2013-04-15 18:33:00,50.0,31.0,-100.00,SW,225,4.0,10.0,48,0.00,,,0.00,289.000000,,2013-04-15 22:33:00,
2013-04-15 18:42:00,50.0,31.0,-100.00,SW,225,4.0,10.0,48,0.00,,,0.00,289.000000,,2013-04-15 22:42:00,
2013-04-15 18:52:00,50.0,31.0,-100.00,SW,225,4.0,10.0,48,0.00,,,0.00,289.000000,,2013-04-15 22:52:00,
2013-04-15 19:01:00,47.0,32.0,-100.00,SW,226,2.0,7.0,56,0.00,,,0.00,43.000000,,2013-04-15 23:01:00,
2013-04-15 19:32:00,47.0,32.0,-100.00,SW,226,2.0,7.0,56,0.00,,,0.00,43.000000,,2013-04-15 23:32:00,
2013-04-15 19:42:00,47.0,32.0,-100.00,SW,226,2.0,7.0,56,0.00,,,0.00,43.000000,,2013-04-15 23:42:00,
2013-04-15 19:52:00,47.0,32.0,-100.00,SW,226,2.0,7.0,56,0.00,,,0.00,43.000000,,2013-04-15 23:52:00,
2013-04-15 20:01:00,44.0,37.0,-100.00,SW,217,0.0,4.0,75,0.00,,,0.00,6.000000,,2013-04-16 00:01:00,
2013-04-15 20:22:00,44.0,37.0,-100.00,SW,217,0.0,4.0,75,0.00,,,0.00,6.000000,,2013-04-16 00:22:00,
2013-04-15 20:32:00,44.0,37.0,-100.00,SW,217,0.0,4.0,75,0.00,,,0.00,6.000000,,2013-04-16 00:32:00,
2013-04-15 20:42:00,44.0,37.0,-100.00,SW,217,0.0,4.0,75,0.00,,,0.00,6.000000,,2013-04-16 00:42:00,
2013-04-15 20:52:00,44.0,37.0,-100.00,SW,217,0.0,4.0,75,0.00,,,0.00,6.000000,,2013-04-16 00:52:00,
2013-04-15 21:01:00,42.0,38.0,-100.00,SW,226,0.0,4.0,87,0.00,,,0.00,0.000000,,2013-04-16 01:01:00,
2013-04-15 21:22:00,42.0,38.0,-100.00,SW,226,0.0,4.0,87,0.00,,,0.00,0.000000,,2013-04-16 01:22:00,
2013-04-15 21:32:00,42.0,38.0,-100.00,SW,226,0.0,4.0,87,0.00,,,0.00,0.000000,,2013-04-16 01:32:00,
2013-04-15 21:42:00,42.0,38.0,-100.00,SW,226,0.0,4.0,87,0.00,,,0.00,0.000000,,2013-04-16 01:42:00,
2013-04-15 21:52:00,42.0,38.0,-100.00,SW,226,0.0,4.0,87,0.00,,,0.00,0.000000,,2013-04-16 01:52:00,
2013-04-15 22:01:00,41.0,39.0,-100.00,WSW,237,1.0,4.0,93,0.00,,,0.00,0.000000,,2013-04-16 02:01:00,
2013-04-15 22:32:00,41.0,39.0,-100.00,WSW,237,1.0,4.0,93,0.00,,,0.00,0.000000,,2013-04-16 02:32:00,
2013-04-15 22:42:00,41.0,39.0,-100.00,WSW,237,1.0,4.0,93,0.00,,,0.00,0.000000,,2013-04-16 02:42:00,
2013-04-15 22:52:00,41.0,39.0,-100.00,WSW,237,1.0,4.0,93,0.00,,,0.00,0.000000,,2013-04-16 02:52:00,
2013-04-15 23:01:00,40.0,39.0,-100.00,NW,322,0.0,5.0,95,0.00,,,0.00,0.000000,,2013-04-16 03:01:00,
2013-04-15 23:33:00,40.0,39.0,-100.00,NW,322,0.0,5.0,95,0.00,,,0.00,0.000000,,2013-04-16 03:33:00,
2013-04-15 23:43:00,40.0,39.0,-100.00,NW,322,0.0,5.0,95,0.00,,,0.00,0.000000,,2013-04-16 03:43:00,
2013-04-15 23:53:00,40.0,39.0,-100.00,NW,322,0.0,5.0,95,0.00,,,0.00,0.000000,,2013-04-16 03:53:00,